Погода в Кёльне

Германия     50°55′50″N   6°56′18″E
темп.,
°C
ветер,
м/с
пор.,
м/с
влажн.,
%
обл.,
%
осадки,
мм/ч
давл.,
гПа
погр.,
м
11 апреля, вс
вс1123:00+9ююв31092100 0.6 1008449
02:00+10ю41192100 3.3 1007683
05:00+9з1298100 0.3 100793
08:00+5зсз3596100 4.0 1010372
11:00+4сз4595100 0.3 1011561
14:00+3ссз3796100 3.1 1013504
17:00+5ссз3789100 3.1 1015808
20:00+5ссз487893 3.3 1017703
12 апреля, пн
пн1223:00+3сз3781100 0.0 1020402
02:00+2сз248594 0.0 1022178
05:00+1зсз2589100 0.0 1024252
08:00+1з248586 0.0 1026226
11:00+6з23617 0.0 10271077
14:00+9з3440100 0.2 10262191
17:00+7з345997 1.1 10261248
20:00+5сз367799 2.9 1028483
13 апреля, вт
вт1323:00+4сз258465 0.7 1030173
02:00+1зсз24905 0.7 1031128
05:000з12925 0.0 103299
08:00+1зсз138919 0.0 1033175
11:00+5сз236743 0.0 10341058
14:00+9сз343991 0.1 10322105
17:00+10ссз343797 0.1 10312042
20:00+7св245530 0.3 1032560
14 апреля, ср
ср1423:00+4ссв256543 0.0 1033179
02:00+3св126675 0.0 1033116
05:00+1св11745 0.0 103221
08:00+2ссв12724 0.0 1033139
11:00+7с24465 0.0 10321407
14:00+8с3441100 0.3 10311839
17:00+10с453394 0.3 10292191
20:00+7ссв465233 0.3 1029718
15 апреля, чт
чт1523:00+5ссв277199 0.2 1031527
02:00+3св277395 0.2 1031258
05:00+2ссв257446 0.0 1031179
08:00+2ссв267295 0.0 1031263
11:00+6ссв3562100 0.0 10311167
14:00+10св4535100 0.2 10302293
17:00+9св5537100 0.0 10302035
20:00+7всв3751100 0.0 10301110